GFSWCAN_con_lsi_174.txt.gz
Lid_Strength_Index
2 2 2 2 1 1 1 1 1 0 0 -0 -0 -0 -1 0 1 3 4 3 6 10 9 7 7 10 11 11 14 13 13 13 15 20 19 15 15 14 15 14 14 15 22 18 17 19 18 7 8 12 9 6 7 7
2 2 1 1 1 1 1 1 1 1 1 0 -0 -0 -0 1 0 2 5 2 2 7 8 5 6 6 7 8 10 12 11 11 12 16 16 14 14 15 15 17 13 17 14 17 14 14 8 8 8 7 6 7 6 7
2 2 1 1 1 1 0 1 1 1 1 1 0 0 0 -0 0 1 4 4 4 8 7 8 8 6 6 6 6 12 11 9 10 10 14 17 19 15 19 17 16 12 9 11 11 10 9 8 8 6 6 6 5 5
1 1 1 1 1 1 1 1 1 0 0 1 1 0 1 1 0 1 5 3 5 7 11 10 5 7 6 6 6 7 7 7 8 12 18 19 18 14 17 15 14 12 11 12 12 10 10 8 7 6 6 6 6 6
2 2 1 1 1 1 1 0 0 0 0 0 0 0 0 0 0 3 5 3 2 6 11 10 7 6 6 6 7 6 6 9 11 14 16 18 13 13 15 14 15 11 12 13 13 10 10 9 7 6 7 7 7 7
2 1 1 1 1 1 0 -0 -0 -0 -0 -0 -1 -0 -0 -0 0 5 7 4 1 2 8 11 6 7 7 6 7 7 7 9 10 12 14 12 11 12 18 17 12 10 9 9 10 8 8 8 7 7 7 6 6 6
1 1 1 1 0 -0 -0 -0 -1 -1 -1 -1 -1 -1 -1 -0 4 6 7 3 1 2 8 10 10 7 6 7 8 9 8 9 10 12 12 12 12 11 15 16 11 9 8 8 8 9 9 8 8 6 5 4 4 6
1 1 0 0 -0 -1 -1 -1 -1 -1 -1 -1 -1 -1 -1 -0 1 5 4 0 2 6 7 10 11 9 6 10 11 9 10 9 9 10 12 12 11 10 15 12 10 8 8 8 7 7 6 7 7 6 5 5 6 7
0 0 0 -0 -1 -1 -1 -2 -1 -1 -1 -1 -1 -1 2 4 6 6 0 -0 2 5 10 10 12 12 7 8 8 8 8 11 8 12 11 12 14 16 12 11 10 9 9 8 7 7 8 7 7 7 7 6 6 6
-1 -1 -1 -1 -1 -1 -1 -2 -2 -1 -1 -1 2 4 7 4 -0 -0 3 6 6 7 7 10 9 13 8 9 10 10 9 11 13 11 10 13 14 10 9 8 8 8 7 7 9 9 9 9 7 7 7 6 5 5
-1 -1 -1 -1 -1 -1 -1 -1 -2 -1 -1 3 5 5 2 -1 2 5 9 10 14 12 10 9 9 11 7 10 11 9 11 11 15 13 13 14 14 11 8 8 7 7 6 6 6 7 7 7 7 6 6 6 5 5
-2 -2 -2 -2 -1 -1 -1 -2 -1 0 3 3 3 2 3 7 8 13 15 13 14 15 11 10 9 8 7 6 9 9 12 12 15 11 16 16 13 9 9 8 7 7 7 6 6 6 6 6 6 6 7 6 6 5
-2 -2 -2 -2 -1 -2 -2 -1 -1 -1 -0 2 4 6 8 8 12 19 20 14 14 11 10 9 10 8 8 8 9 11 14 14 10 13 15 13 10 9 9 8 8 6 7 7 6 6 6 6 6 6 6 5 4 5
-2 -2 -2 -2 -2 -2 -1 -1 -1 0 4 7 9 12 12 12 13 16 15 13 10 10 10 8 9 9 8 10 10 13 12 13 18 16 15 12 10 10 9 9 7 7 7 7 6 6 6 6 6 5 5 4 4 5
-2 -2 -2 -1 -2 -2 -1 -0 0 2 6 9 13 16 15 12 13 12 12 11 9 8 7 8 8 9 11 11 11 14 17 19 15 14 13 11 10 9 8 7 7 8 7 7 7 6 6 6 6 6 5 5 5 5
-2 -1 0 -1 -1 -1 0 2 2 3 6 10 13 14 10 11 13 10 9 13 8 7 7 7 11 14 15 13 17 15 15 15 13 12 10 9 9 8 8 7 7 7 8 8 7 6 5 5 5 5 5 6 6 6
-1 2 -1 -1 -0 0 1 3 4 8 10 13 12 9 10 10 10 11 8 9 6 8 13 14 17 17 14 18 17 12 13 11 11 10 9 8 7 6 6 7 8 8 8 8 7 6 5 5 5 6 7 6 6 5
2 1 -1 -1 0 2 3 4 6 9 11 11 10 10 10 10 9 9 8 7 7 9 11 14 13 18 18 18 14 12 11 10 9 9 9 7 7 7 7 8 8 8 8 7 6 6 6 6 7 7 6 6 6 5
1 1 -1 -1 1 4 8 8 7 14 12 9 8 9 9 9 8 7 7 7 6 7 10 15 16 16 13 11 10 10 10 9 8 8 8 7 8 8 7 7 8 8 8 7 7 6 6 6 6 6 6 6 6 5
-1 -1 -1 -1 1 6 12 13 9 13 12 9 8 9 10 10 9 8 8 7 8 10 13 17 13 10 10 10 9 8 8 8 8 9 9 8 8 8 8 8 8 7 7 7 7 5 6 6 6 6 5 5 5 6
0 0 -1 1 4 6 10 10 12 11 9 9 9 9 10 9 9 9 9 8 10 13 12 10 12 11 8 7 7 7 7 7 8 8 8 8 8 8 8 8 8 8 8 8 8 7 5 6 6 5 5 5 6 6
2 -0 3 2 9 9 9 7 10 9 10 10 10 10 10 11 10 9 8 9 10 9 9 9 9 8 8 7 6 6 6 6 7 7 5 6 8 8 8 8 8 8 7 7 6 7 6 6 6 5 5 6 5 6
1 3 6 11 13 15 11 8 13 10 15 15 10 13 13 11 10 8 10 9 8 7 7 8 7 7 7 6 6 6 7 8 9 8 8 8 8 8 8 7 7 7 8 7 6 6 6 5 5 5 6 6 6 6
2 11 14 14 16 12 15 15 12 13 11 14 16 16 13 12 9 11 11 10 9 8 9 8 7 8 8 8 8 8 8 8 8 8 8 9 9 8 7 7 6 6 6 6 5 6 6 6 5 6 7 6 6 7
11 13 14 14 13 16 16 15 14 13 18 13 17 17 13 10 14 13 11 10 10 10 9 8 8 8 8 8 8 8 7 7 8 8 6 7 7 7 7 6 6 5 5 6 6 6 7 7 7 7 6 7 7 7
14 14 15 14 14 13 13 16 14 12 12 16 12 11 10 11 14 14 10 10 9 8 7 7 8 8 8 8 8 8 6 5 6 7 6 6 6 7 7 7 8 7 5 6 6 5 6 7 7 7 7 7 6 7
16 16 10 8 9 9 11 10 10 11 12 14 13 13 14 14 14 10 8 7 7 6 6 5 6 6 6 6 5 5 6 6 6 6 6 6 5 5 6 7 7 6 6 6 6 7 6 7 7 7 7 7 7 7
10 9 10 9 10 10 13 14 13 12 11 10 10 13 14 13 11 9 8 6 6 5 5 5 5 5 6 6 5 6 6 6 6 6 6 6 5 6 6 6 6 4 6 6 5 5 6 6 7 7 7 8 8 7
9 9 10 15 11 10 11 10 10 9 8 9 10 11 10 8 7 7 6 4 3 4 7 7 6 6 7 6 6 7 7 7 8 9 8 8 8 7 7 7 7 7 7 6 5 5 5 6 6 7 7 7 7 6
11 9 12 13 15 13 10 9 9 9 9 8 8 8 8 8 8 7 7 7 7 6 5 6 7 8 8 8 8 8 7 7 8 9 10 10 10 8 8 8 7 7 6 6 6 6 5 5 6 6 7 7 7 7
10 10 11 11 14 10 10 9 8 7 9 10 10 9 9 8 8 8 8 9 8 8 7 7 8 8 8 9 9 9 7 6 7 8 8 8 8 8 7 6 6 5 6 7 7 7 7 7 7 7 8 8 8 7
10 10 10 13 12 9 9 8 9 9 9 9 9 10 9 8 8 7 8 9 9 9 7 8 9 9 8 8 8 7 6 7 8 8 8 7 7 6 6 6 6 6 7 7 7 7 7 7 7 7 8 8 8 8
10 10 10 11 13 10 8 10 10 10 9 9 9 8 8 8 9 8 8 7 8 9 9 9 9 8 8 7 8 7 7 8 7 6 6 5 5 5 6 6 6 6 6 7 7 7 8 7 8 8 8 8 8 8

GFSWCAN_con_lsi_177.txt.gz
Lid_Strength_Index
4 4 3 3 2 2 2 2 1 1 2 1 1 1 1 0 1 3 5 2 5 9 8 6 6 8 9 10 13 12 12 12 15 20 19 17 16 15 15 14 14 15 19 20 19 20 18 8 9 13 11 8 6 7
3 3 3 2 2 1 1 1 1 1 1 1 1 1 1 0 -0 1 5 3 3 7 7 5 5 5 6 7 10 11 11 12 13 16 15 14 15 14 14 17 15 17 16 18 16 15 10 8 9 8 8 8 6 6
3 2 2 2 2 2 1 1 1 1 1 1 1 1 1 1 0 1 4 3 5 8 7 7 8 5 4 6 6 11 11 10 12 11 15 17 19 15 19 17 17 14 12 13 12 10 9 8 8 8 7 7 6 6
3 2 2 2 1 1 1 1 1 1 1 1 1 1 1 1 0 1 5 3 3 6 10 10 5 7 5 6 6 7 8 9 10 13 17 19 19 15 18 16 15 13 12 14 14 11 10 8 8 7 7 6 6 7
3 2 2 2 1 1 1 1 1 1 1 0 0 0 0 0 0 3 5 4 2 6 10 12 8 6 6 6 6 6 8 10 11 13 17 17 14 14 16 14 16 12 13 15 15 11 11 10 8 7 8 7 7 7
2 2 2 1 1 1 1 1 0 0 0 -0 -0 -0 -1 -0 0 5 10 4 1 2 7 11 7 8 7 7 7 7 8 10 11 12 14 13 12 14 19 18 13 12 11 10 11 10 10 8 7 7 8 6 5 5
2 2 1 1 1 1 0 0 -0 -0 -1 -1 -1 -1 -1 -1 3 6 9 4 1 3 8 9 11 8 6 7 7 8 9 10 11 12 13 13 12 13 17 17 13 10 10 10 10 10 10 9 8 7 6 5 4 6
2 1 1 1 1 1 0 -0 -1 -1 -1 -1 -1 -1 -1 -1 1 4 3 -0 2 5 7 10 10 8 5 9 10 8 10 10 11 12 12 13 12 13 17 13 11 9 9 10 9 9 8 8 8 7 5 5 6 6
1 0 0 0 0 -0 -0 -1 -1 -1 -2 -1 -1 -1 3 4 5 5 0 -1 2 4 9 9 13 12 6 9 8 8 8 12 9 13 12 12 15 17 13 12 11 9 10 10 9 9 9 9 8 8 7 6 7 6
-0 -0 -0 -0 -1 -1 -1 -1 -2 -2 -2 -1 1 5 10 5 -0 -0 2 5 6 6 6 10 7 10 7 8 10 10 9 11 14 13 11 14 15 11 11 10 9 8 9 9 10 10 10 10 8 7 7 6 6 6
-1 -1 -1 -1 -1 -1 -2 -2 -1 -1 -1 2 7 7 4 0 3 4 8 10 14 14 10 9 8 9 6 10 10 9 11 11 15 13 13 14 16 12 9 8 8 8 8 8 8 7 8 8 8 8 7 6 6 6
-1 -1 -2 -2 -2 -2 -2 -2 -2 1 3 3 3 2 3 6 9 11 12 14 12 14 12 9 8 8 7 6 9 10 11 12 15 11 15 17 13 10 9 9 9 9 9 8 7 7 7 7 7 7 6 6 6 6
-2 -2 -2 -2 -2 -2 -2 -2 -2 -1 -1 1 4 7 8 13 12 14 21 16 13 10 10 8 9 8 7 7 9 10 13 13 11 15 16 14 11 9 9 10 9 9 8 8 8 7 7 6 6 7 7 6 6 5
-2 -2 -2 -2 -2 -2 -2 -2 -2 -0 1 6 8 12 11 16 15 16 14 12 9 10 11 8 9 9 8 9 9 12 11 11 14 16 15 12 10 10 10 10 10 8 8 8 7 7 7 7 7 6 5 5 5 5
-2 -2 -2 -2 -2 -2 -2 -2 -1 0 4 8 8 14 13 12 14 12 12 12 9 9 7 7 8 8 10 11 10 12 14 16 15 15 13 12 11 10 10 9 10 7 8 7 7 7 7 7 7 6 6 6 5 5
-2 -2 0 -1 -2 -1 -1 -1 1 2 5 7 9 13 11 12 13 12 10 12 9 8 7 7 10 11 12 12 13 14 15 16 13 12 11 11 11 10 9 8 8 8 8 8 7 7 7 6 6 6 5 5 5 5
-2 2 -1 -1 -1 -1 -1 2 3 6 8 9 11 8 9 10 11 12 8 8 6 7 14 14 14 13 13 16 16 12 13 12 12 11 11 10 9 9 8 8 8 8 8 9 9 8 7 5 5 6 6 5 5 5
1 1 -1 -1 -1 -0 2 3 6 8 11 11 10 9 9 9 9 8 7 7 8 9 9 13 13 18 18 18 14 12 11 11 10 10 9 9 9 8 7 8 7 7 8 9 8 7 6 6 6 6 6 6 6 6
1 2 -1 -1 0 3 6 6 7 10 11 8 9 8 9 9 8 7 6 6 6 6 8 12 15 15 13 11 11 11 11 10 10 9 9 8 8 7 8 8 8 9 9 9 8 7 6 6 6 6 6 6 7 6
-1 -0 -1 -1 0 5 8 9 8 9 12 9 8 9 10 9 8 7 8 7 8 9 13 16 13 11 10 10 10 9 9 9 8 9 9 9 8 8 8 8 8 8 8 8 7 5 6 6 6 6 6 6 6 6
0 1 -1 1 4 5 8 11 11 11 9 9 8 9 10 9 9 8 7 7 8 11 11 10 12 11 9 8 8 8 8 8 9 8 8 8 8 8 8 8 8 8 8 8 8 8 5 6 6 6 6 5 5 5
1 -0 2 2 7 8 9 7 9 8 10 10 9 9 11 11 10 9 8 8 9 9 10 10 9 9 9 9 8 7 6 7 7 7 5 6 8 8 8 8 8 8 8 7 7 7 7 6 6 6 6 6 5 6
1 2 6 11 12 13 11 8 12 10 14 14 10 12 13 12 10 8 10 9 8 8 8 9 9 8 8 8 7 7 7 7 8 9 9 8 8 8 8 8 8 8 7 7 6 7 7 5 5 5 6 6 6 7
3 11 13 14 14 15 14 15 12 13 11 15 16 16 13 13 9 12 12 10 8 8 9 9 9 9 9 9 9 8 7 8 8 9 8 9 9 9 8 8 7 7 6 6 6 6 6 6 5 6 7 7 7 7
12 14 14 14 14 15 15 15 14 14 17 13 17 17 14 10 14 14 12 10 10 10 9 9 10 10 10 10 9 8 7 8 9 9 7 7 8 8 7 7 7 6 5 6 6 6 7 6 6 6 7 7 7 7
17 16 16 15 14 13 13 16 14 12 13 17 14 12 10 12 15 15 11 10 10 9 7 8 9 9 9 9 9 8 7 6 6 7 7 6 7 7 7 7 8 7 6 6 6 7 7 7 7 7 7 6 6 7
17 17 12 9 10 10 11 10 10 12 13 15 14 14 15 14 15 11 9 8 7 6 6 6 6 7 7 7 6 6 6 6 7 6 6 6 6 6 6 7 7 6 6 6 7 7 7 7 6 7 7 7 7 7
12 10 11 10 9 9 13 14 14 13 12 10 11 14 15 13 12 9 8 6 6 6 5 5 5 6 6 6 6 6 7 7 7 6 7 7 6 6 6 6 6 5 5 6 6 6 5 6 7 7 7 7 7 7
10 9 10 13 10 10 11 11 11 10 8 9 11 12 10 8 7 7 6 4 3 4 6 6 7 7 7 7 7 7 8 8 9 9 9 9 9 7 6 7 7 7 7 6 5 4 5 5 6 6 6 6 6 6
11 9 11 13 15 14 10 9 9 9 9 9 8 8 8 8 7 7 7 6 6 6 5 5 7 8 8 8 8 8 8 8 8 9 10 10 10 8 8 8 7 7 6 6 6 6 5 5 5 6 7 7 7 7
10 10 12 11 14 11 10 9 8 8 9 10 9 9 8 8 7 8 8 9 9 8 8 8 8 8 8 9 9 9 8 6 7 8 7 8 8 8 8 7 6 6 6 6 7 7 7 7 6 7 8 8 8 8
10 11 11 14 13 10 8 9 10 10 9 10 10 10 8 8 10 8 9 9 9 9 7 8 9 9 8 8 8 8 6 7 7 8 8 7 7 6 6 6 6 6 6 6 6 6 7 7 7 7 8 9 9 8
11 10 10 11 10 10 9 10 10 11 9 10 10 9 8 8 9 8 8 7 8 9 9 9 9 9 9 8 8 7 6 8 7 5 5 5 5 5 5 5 5 6 6 6 7 7 7 7 8 8 8 8 8 8

GFSWCAN_con_lsi_180.txt.gz
Lid_Strength_Index
6 5 5 4 4 3 3 2 2 2 2 2 2 2 1 1 1 4 4 2 5 8 7 6 6 8 7 8 12 12 12 12 14 17 16 16 16 16 18 16 15 17 21 23 22 24 20 10 10 13 10 9 8 7
4 4 4 4 3 3 2 2 2 2 2 1 1 1 1 1 1 2 7 3 2 5 7 5 5 5 5 5 8 10 11 12 12 15 15 14 16 16 16 18 15 16 15 18 17 16 12 9 9 8 8 9 7 7
4 3 3 3 2 2 2 2 2 2 2 2 2 1 1 1 1 2 5 2 3 6 7 7 8 5 4 4 4 10 10 10 11 11 14 17 20 16 18 16 17 15 13 14 13 13 11 10 9 8 8 8 7 7
4 3 3 3 3 2 2 2 2 2 2 1 1 1 1 1 1 2 5 5 4 5 10 10 5 7 4 3 4 6 7 8 10 12 18 17 19 16 17 16 16 15 13 14 14 13 11 10 9 8 7 7 7 7
3 3 3 3 3 2 2 2 2 1 1 1 1 1 1 1 1 3 5 5 3 7 11 10 7 5 5 4 5 5 7 9 11 14 15 16 15 15 17 15 17 14 14 15 16 12 12 11 9 8 8 8 8 7
3 3 3 3 2 2 2 1 1 1 1 1 0 0 0 -0 0 5 11 4 2 2 8 11 7 6 7 4 5 6 7 9 11 12 14 13 13 14 19 18 13 13 11 11 12 11 11 10 8 8 8 7 7 5
3 3 3 3 2 2 2 1 1 1 0 -0 -0 -0 -1 -1 4 7 9 5 1 2 8 12 9 6 5 6 7 8 8 9 10 12 13 14 14 14 17 17 13 12 11 11 11 11 11 10 9 8 8 6 5 5
2 2 2 2 2 2 2 1 1 0 -0 -0 -0 -1 -1 -1 1 3 3 0 0 5 7 12 13 8 4 8 10 7 9 9 10 12 13 13 13 14 19 14 12 11 11 11 10 10 10 9 9 8 7 7 6 6
1 1 1 1 1 1 1 0 0 -0 -1 -1 -1 -1 3 4 5 5 -0 -1 2 4 9 12 12 14 5 7 8 8 7 11 9 12 13 12 15 17 13 12 11 11 11 11 10 10 10 10 9 9 9 8 7 7
0 0 0 0 0 -0 -0 -0 -0 -1 -1 -1 2 5 10 7 -1 -0 2 5 5 5 6 10 9 10 6 7 8 9 9 11 13 12 11 13 16 12 11 10 10 10 9 10 11 11 12 11 10 10 8 7 6 6
0 -0 -0 -0 -0 -0 -1 -1 -1 -1 -0 4 9 8 5 1 4 6 8 9 15 16 10 8 8 10 5 9 9 8 10 11 15 13 13 14 16 12 10 9 9 8 9 9 9 9 9 9 9 9 8 7 7 6
-0 -1 -1 -1 -1 -1 -2 -2 -2 2 4 4 4 3 3 6 8 10 13 10 15 14 11 9 8 7 6 5 8 8 11 11 16 11 15 16 14 10 10 9 10 9 9 9 9 9 9 8 8 8 8 7 7 6
-1 -1 -1 -1 -2 -2 -2 -2 -2 -1 -1 1 4 7 8 12 13 14 22 18 15 10 9 8 8 7 7 6 8 9 13 13 10 15 16 14 12 10 11 10 10 10 10 9 9 9 8 8 8 8 7 7 6 6
-1 -1 -1 -2 -2 -2 -2 -2 -2 -1 1 5 8 13 13 21 13 15 14 13 9 9 9 9 8 10 7 9 9 12 10 11 14 16 15 12 11 10 10 10 11 11 9 9 9 9 8 8 8 7 7 6 6 6
-1 -2 -2 -1 -2 -2 -2 -2 -2 0 3 7 7 14 15 11 12 11 12 14 9 9 8 8 8 10 10 10 10 11 15 17 15 15 13 11 11 11 10 11 11 11 9 9 8 8 7 7 7 7 6 6 6 6
-2 -2 0 -2 -2 -2 -1 -1 0 1 4 6 10 13 10 11 12 14 11 13 9 7 7 7 9 12 12 11 14 13 15 16 13 11 10 10 11 10 10 10 9 9 9 8 8 7 7 7 7 7 6 6 6 6
-1 3 -1 -2 -2 -1 -1 1 2 5 7 8 12 8 9 9 9 11 9 9 7 9 9 13 13 13 11 13 13 12 13 11 10 10 11 11 10 10 10 10 9 9 9 9 9 9 8 7 7 7 7 6 6 5
2 1 -1 -1 -0 -0 1 2 5 7 11 11 11 8 8 8 8 8 7 7 7 8 10 13 13 15 13 15 13 11 11 11 11 10 10 10 10 10 8 9 9 9 9 9 9 9 8 7 7 7 6 6 6 5
1 1 -1 -1 0 3 6 6 5 10 11 8 7 8 8 8 7 7 6 6 7 6 8 10 12 12 11 11 11 11 11 10 10 9 9 9 9 8 9 9 9 9 9 9 9 9 8 7 6 6 6 6 6 6
-1 -1 -1 -1 0 5 7 8 7 9 11 8 8 9 8 9 8 7 7 6 6 7 10 12 12 11 10 10 9 9 9 9 9 10 10 10 9 9 8 9 9 9 9 8 8 6 7 7 6 6 6 6 6 6
0 0 -1 0 4 4 6 11 12 9 9 10 7 9 9 8 7 7 7 7 8 12 11 10 12 11 9 9 9 8 8 9 9 8 9 9 8 8 9 9 9 9 9 9 9 8 6 8 7 6 5 5 5 5
1 -0 3 3 6 7 8 7 7 7 9 10 8 9 10 10 10 8 7 8 9 9 9 9 9 9 9 9 9 8 8 8 8 7 5 6 8 8 9 8 9 8 8 8 8 8 7 7 6 6 6 6 5 6
1 3 9 11 12 15 13 8 11 9 13 13 9 11 12 12 11 8 10 9 9 8 8 9 9 9 9 9 8 8 8 8 9 9 8 9 9 9 9 9 8 8 8 8 7 7 7 5 5 5 6 6 6 6
3 10 12 12 14 14 14 15 11 12 11 14 14 14 13 12 10 12 12 10 9 9 9 9 9 10 10 10 10 9 9 8 9 8 9 9 9 9 8 8 7 7 7 7 6 6 6 6 5 6 6 7 7 7
12 14 14 15 15 14 14 14 12 13 17 13 16 16 13 10 14 13 12 10 10 10 10 10 10 10 11 11 10 9 8 8 9 9 7 8 8 8 7 7 7 7 6 6 7 6 6 6 7 6 6 7 7 7
17 15 16 16 14 13 12 13 13 12 13 16 14 13 11 13 15 15 12 10 10 9 8 8 9 10 11 10 10 9 8 6 6 7 7 6 6 7 7 7 8 7 6 6 6 6 7 7 7 8 8 7 6 7
18 17 12 9 10 10 12 11 10 12 14 16 15 15 15 17 17 12 10 9 8 7 7 6 7 8 8 7 7 6 6 7 7 6 6 7 7 7 7 8 8 6 6 6 6 7 7 7 8 8 8 7 7 7
11 11 12 11 10 10 14 15 15 14 12 11 12 15 15 14 13 10 9 7 6 6 5 5 6 6 6 7 7 7 7 7 6 7 7 7 7 7 7 6 6 4 4 5 6 7 7 7 7 7 7 7 7 7
11 9 10 16 11 11 11 11 12 10 9 10 11 12 11 8 8 8 5 4 4 5 6 6 6 7 7 7 7 7 8 8 9 9 10 10 10 7 6 7 7 7 6 6 5 5 6 5 5 5 6 6 6 6
12 9 12 13 14 13 10 9 10 10 10 9 8 8 8 8 7 7 7 5 6 7 6 4 5 8 8 8 8 8 8 8 9 10 10 11 11 9 8 7 7 7 7 7 6 6 5 6 6 6 6 6 7 7
10 10 12 11 13 11 10 9 9 8 10 11 10 9 9 8 7 8 8 9 8 8 8 8 8 8 8 9 9 9 9 6 6 7 8 8 8 8 7 7 7 6 6 6 6 6 7 7 7 7 7 7 7 7
11 12 12 15 15 11 7 10 10 10 10 10 10 10 9 9 10 8 9 9 9 9 7 8 9 9 8 8 8 8 5 7 8 8 8 7 7 6 6 6 6 6 6 6 6 6 6 7 7 7 7 8 8 9
12 11 12 12 11 10 8 9 9 10 9 9 10 10 9 9 9 8 8 8 9 9 9 9 9 9 9 8 8 8 7 8 7 5 4 4 4 4 5 5 5 5 5 6 6 6 7 7 7 8 8 8 9 9

GFSWCAN_con_lsi_183.txt.gz
Lid_Strength_Index
6 6 6 5 5 5 4 4 3 3 3 3 2 2 2 1 2 5 6 3 6 9 8 6 6 8 7 7 11 10 11 10 11 15 15 16 16 15 15 15 16 17 19 19 19 20 19 10 9 12 9 7 7 7
5 5 5 5 4 4 4 4 3 3 2 2 2 2 2 2 1 4 8 5 3 6 8 5 5 4 4 5 7 8 10 11 10 12 14 13 15 15 15 17 15 16 14 16 16 15 11 9 8 7 7 7 7 6
6 5 5 4 4 3 3 2 2 2 2 2 2 2 2 2 2 3 7 6 5 7 9 9 8 5 4 3 3 9 9 8 9 9 12 13 16 14 16 16 16 13 12 14 13 12 11 10 8 7 7 7 6 6
5 5 4 4 3 3 2 2 2 2 2 2 2 2 2 2 2 2 6 6 6 9 12 11 6 6 3 3 4 5 7 8 9 10 13 15 15 13 16 16 15 14 13 14 13 12 11 10 9 7 7 6 6 6
4 3 3 3 3 3 2 2 2 2 2 2 2 1 1 1 1 4 6 6 4 7 14 11 7 5 5 4 4 4 6 7 9 12 14 15 14 14 16 15 17 14 14 14 15 12 12 11 8 7 7 7 6 7
3 3 3 3 2 2 2 2 2 2 2 1 1 1 1 1 1 6 12 6 4 2 9 14 8 7 6 5 4 5 6 7 8 10 12 13 12 13 16 17 14 13 12 11 12 11 10 9 8 7 7 7 6 5
2 3 3 3 3 3 3 3 2 2 2 1 1 1 1 1 5 7 9 6 1 2 7 11 13 5 5 4 4 5 5 8 8 10 12 12 12 12 15 17 12 12 11 11 10 10 10 9 9 8 7 6 5 5
2 2 2 2 2 2 2 2 2 2 1 1 0 0 -0 0 2 5 4 1 0 4 6 11 12 9 4 7 8 6 8 8 9 10 11 12 12 13 17 14 11 11 11 11 11 10 9 9 8 8 7 7 6 6
1 1 1 1 1 1 1 1 1 1 1 0 0 0 4 5 6 5 0 -1 -0 3 9 10 15 15 4 6 6 6 6 10 9 11 11 11 14 17 13 13 11 11 11 10 10 10 10 10 9 9 9 8 6 6
1 1 1 0 1 1 1 0 0 0 0 0 4 7 11 8 0 1 5 4 5 5 6 9 10 11 7 8 8 8 7 10 12 11 10 12 15 12 11 11 10 10 10 10 11 11 11 11 10 9 9 7 6 6
0 0 0 -0 -0 -0 -0 -0 -0 0 1 6 10 11 6 2 6 9 11 9 15 15 9 8 8 12 6 9 11 7 10 9 13 13 12 14 15 12 10 10 9 8 9 10 9 9 9 9 9 9 9 8 6 6
-0 -0 -0 -1 -1 -1 -1 -1 -1 3 5 5 5 4 5 7 9 11 12 13 15 14 10 9 9 7 7 5 9 9 10 10 15 10 14 16 12 11 10 9 9 10 10 10 9 9 9 9 9 8 8 8 7 6
-1 -1 -1 -1 -1 -1 -1 -1 -2 -1 0 2 4 8 9 10 13 14 21 17 15 10 9 9 9 8 6 6 8 9 13 12 9 13 14 13 11 10 11 10 10 10 10 9 9 9 9 8 8 9 8 7 7 6
-1 -1 -1 -1 -1 -1 -2 -2 -2 -1 2 7 10 12 14 18 14 14 12 11 10 10 10 8 8 8 9 9 9 12 10 11 14 16 15 12 11 10 10 11 10 11 10 10 10 9 9 9 9 8 8 6 6 6
-1 -1 -1 -1 -2 -2 -2 -2 -2 1 3 7 9 16 16 11 11 11 12 13 10 9 8 8 8 8 14 10 9 11 13 16 15 14 12 11 11 11 10 10 11 12 10 10 9 9 9 9 8 7 7 6 6 5
-1 -1 0 -2 -2 -2 -1 -1 1 1 3 6 9 11 10 11 12 11 10 10 8 8 7 8 12 11 14 14 12 14 16 16 13 12 11 10 10 10 10 10 10 10 9 9 8 8 8 7 7 7 7 6 6 5
-1 1 -1 -2 -2 -1 -1 2 3 4 7 11 12 8 9 10 10 10 8 9 8 9 15 15 14 12 10 15 15 11 13 12 11 11 11 10 10 10 10 10 10 9 9 10 9 9 8 7 7 7 7 6 5 5
3 2 -2 -2 -1 -0 1 2 4 7 11 11 11 9 9 8 9 7 7 7 7 9 12 13 11 16 15 13 12 11 10 9 10 11 11 10 10 9 8 9 9 9 9 9 9 9 8 8 7 7 6 6 6 5
1 2 -1 -2 -1 3 5 5 5 14 11 9 8 8 7 8 8 7 6 5 5 6 7 9 13 14 12 10 11 11 11 10 10 10 9 10 10 9 9 10 10 10 9 9 9 9 8 8 7 6 6 6 6 5
-2 -2 -1 -1 -0 4 7 7 8 11 12 9 8 8 8 8 8 8 7 6 6 7 9 10 11 10 10 10 9 9 9 9 9 10 10 10 10 10 9 9 9 9 9 9 8 6 8 7 7 6 6 6 6 6
0 0 -0 -0 4 5 7 11 12 10 8 10 8 8 8 7 7 7 7 6 7 8 9 9 10 10 9 9 9 8 8 9 9 9 9 9 9 9 8 8 9 9 9 9 9 8 6 7 7 7 6 5 5 4
2 1 4 3 6 8 12 8 8 7 9 9 9 8 9 10 9 8 7 8 9 8 9 9 8 9 9 9 8 9 8 8 9 8 6 6 8 8 8 8 8 8 9 8 8 8 8 7 7 6 6 5 4 4
1 4 9 9 10 13 14 8 10 9 12 12 10 10 12 11 10 8 10 9 9 8 8 8 8 8 9 9 9 9 9 9 9 9 8 8 8 9 9 8 8 8 8 8 7 7 7 6 6 5 5 5 5 6
4 9 11 13 15 16 16 13 10 11 10 13 12 13 13 12 9 11 12 10 9 9 9 9 9 9 10 10 10 10 9 9 9 9 9 9 9 9 9 8 8 8 7 7 7 6 6 6 5 5 6 6 6 7
12 13 14 15 14 15 15 13 11 12 15 12 15 14 13 10 13 13 12 10 10 10 10 10 10 10 11 11 11 10 9 9 10 10 8 8 8 8 7 7 6 6 6 7 7 6 6 6 6 6 6 6 6 7
17 17 15 15 13 12 11 13 12 12 12 16 14 12 11 12 14 14 12 10 10 10 9 10 10 11 11 11 10 10 8 8 9 7 7 7 7 8 7 7 7 6 6 6 6 6 6 6 6 6 7 7 6 6
17 17 12 10 10 10 12 11 10 12 13 15 15 13 14 21 18 13 10 10 9 8 7 7 8 8 9 8 8 8 7 7 7 7 7 7 7 7 7 8 8 7 6 6 6 6 6 7 7 7 7 7 7 7
12 11 12 10 10 10 14 16 15 14 13 12 12 15 15 15 14 10 10 8 7 6 6 6 6 7 8 7 7 7 7 7 7 6 7 7 7 7 7 7 6 4 5 5 6 6 6 7 7 7 8 8 7 6
12 10 10 15 12 11 12 12 12 11 10 11 12 13 11 9 8 8 5 4 3 6 7 7 6 6 7 7 7 7 8 8 9 9 9 9 10 9 7 7 8 8 7 7 5 4 6 6 7 6 6 5 5 6
12 9 12 14 15 14 11 9 9 10 10 9 9 9 9 9 8 7 6 5 6 7 7 6 5 5 8 8 8 8 8 8 8 9 10 10 10 9 9 9 8 7 7 7 7 7 5 6 6 6 6 6 6 6
11 10 12 12 14 10 9 9 9 9 10 11 11 10 9 8 7 8 8 9 8 8 8 8 7 7 8 8 8 9 9 7 5 6 8 9 9 9 8 8 7 7 7 7 6 6 7 7 7 7 8 8 7 7
11 12 12 16 15 11 8 10 11 11 11 10 12 11 9 9 10 8 8 9 9 9 7 8 9 9 8 8 7 7 5 5 7 8 8 8 8 7 6 6 5 5 6 6 6 6 6 6 7 7 8 8 8 8
13 12 12 13 11 11 8 9 9 9 9 9 9 10 10 9 10 9 9 9 9 9 9 9 9 9 9 8 8 8 6 8 8 5 4 4 3 4 4 5 5 5 6 6 6 6 7 7 8 7 7 7 8 8

GFSWCAN_con_lsi_189.txt.gz
Lid_Strength_Index
6 6 6 6 6 6 6 5 5 5 5 5 5 5 5 4 4 4 4 2 4 7 6 6 5 7 7 8 10 8 9 8 8 11 11 11 12 10 11 10 12 14 15 15 14 14 15 6 7 10 7 5 5 5
6 6 6 6 6 5 5 5 5 5 5 5 5 4 4 3 3 3 4 1 2 5 6 4 4 4 5 5 7 7 9 8 6 9 9 9 11 10 10 13 9 14 11 12 12 10 7 5 6 5 4 5 5 5
6 6 6 6 6 6 5 5 5 5 4 4 4 3 3 3 3 2 3 2 3 6 6 6 7 5 3 4 3 8 7 5 6 4 7 9 12 9 12 11 11 10 8 11 10 8 7 6 5 4 4 4 4 3
7 7 7 6 6 6 5 5 4 4 3 3 3 3 2 2 2 2 2 2 3 5 10 9 4 5 3 4 4 4 5 4 4 5 8 9 11 7 10 9 10 9 9 10 10 8 7 6 5 5 5 4 4 3
5 5 5 5 5 5 4 4 3 3 3 2 2 2 2 1 1 1 1 1 1 5 10 9 6 4 3 4 4 4 4 4 6 8 8 9 7 8 8 9 10 9 9 11 10 7 7 6 5 4 5 5 4 4
4 4 4 4 3 3 3 3 3 3 3 2 2 2 2 2 2 3 7 2 1 2 7 11 6 5 4 4 3 3 3 4 5 7 7 7 6 8 10 11 8 8 7 6 7 6 6 5 5 4 5 4 4 3
3 3 3 3 3 3 3 3 3 2 2 2 2 1 2 1 1 4 5 3 1 0 7 10 9 5 4 3 3 3 3 5 5 7 7 7 8 8 10 12 9 8 7 7 6 6 7 6 6 5 5 4 4 3
2 2 2 2 2 2 2 2 2 2 1 1 1 1 1 1 1 3 1 1 0 3 6 10 9 7 3 5 6 4 6 6 6 7 6 8 8 8 11 8 8 8 8 8 7 6 5 5 5 5 4 4 5 4
1 1 1 1 1 1 1 1 1 1 1 1 1 1 1 2 4 3 1 1 -0 4 8 8 10 11 3 5 5 5 5 9 6 8 8 7 9 11 9 8 8 7 7 7 7 7 6 6 6 5 5 5 5 5
1 1 1 1 1 0 0 0 1 1 1 1 2 4 6 3 2 1 2 5 5 5 5 8 5 8 5 5 7 7 6 9 11 8 6 9 9 6 6 6 6 6 6 6 8 8 7 6 6 6 5 5 5 4
1 1 0 0 0 0 -0 0 0 1 2 2 4 5 2 1 2 4 7 8 7 9 6 5 5 7 3 8 8 6 8 8 12 10 10 10 10 7 5 6 6 5 5 6 6 5 5 5 6 6 5 5 4 3
1 0 -0 -0 -0 -0 -0 -0 0 1 1 2 2 1 2 5 7 9 9 7 8 9 6 6 6 5 5 4 7 6 9 9 13 7 10 11 8 6 6 6 6 6 6 6 6 6 5 5 5 5 5 5 4 3
1 0 0 -0 -0 -0 -0 -0 -0 -0 -0 -0 3 6 7 7 11 11 12 10 9 6 5 5 7 5 5 5 7 8 11 11 7 10 11 8 6 6 6 6 6 5 5 6 6 5 5 5 5 5 5 5 4 4
0 0 0 -0 -0 -0 -1 -1 -1 -1 0 4 7 11 10 10 9 8 8 7 5 5 5 6 6 6 5 8 7 11 10 8 12 13 11 7 7 6 6 6 6 6 6 6 6 6 5 5 5 5 5 4 5 5
-0 -0 -1 -0 -1 -1 -1 -1 -2 -1 2 6 6 11 9 6 5 5 4 5 5 4 5 6 6 6 7 9 8 9 11 12 11 11 8 6 6 6 5 6 6 6 6 6 6 6 6 6 6 6 5 4 4 4
-1 -0 -0 -1 -2 -2 -1 -2 -1 -0 3 5 6 8 6 6 6 5 5 6 4 4 4 5 8 9 10 9 11 11 12 13 11 8 6 6 6 6 6 6 6 6 6 6 6 6 6 6 5 4 4 3 4 4
-1 0 -1 -1 -2 -2 -2 -0 1 5 5 6 7 4 5 5 6 5 5 5 4 5 8 8 10 10 8 11 11 8 10 8 7 6 6 6 6 6 5 5 5 5 5 5 5 5 5 4 4 4 5 4 4 3
0 -1 -1 -2 -2 -1 -0 0 4 5 7 5 7 6 5 4 6 5 5 4 5 6 6 8 6 10 10 11 10 7 6 5 5 5 5 5 4 5 5 5 5 5 5 5 5 4 4 4 4 4 4 3 3 3
-1 -2 -1 -2 -1 1 4 4 4 7 6 5 5 4 5 5 4 4 4 3 3 3 5 7 8 9 9 7 6 6 5 5 5 5 5 5 5 5 5 5 5 5 5 5 5 5 5 4 3 3 3 2 3 2
-2 -2 -2 -2 -1 3 5 5 3 6 7 5 5 6 5 5 4 4 4 4 5 6 7 8 8 6 6 5 4 5 4 4 5 6 6 5 4 4 4 4 5 5 4 5 4 5 4 4 3 3 3 3 3 2
-1 -1 -1 -2 1 2 4 5 6 5 5 6 5 5 6 5 6 6 6 4 6 7 7 6 5 4 3 4 4 4 5 5 5 5 5 5 4 4 4 3 3 4 4 4 5 4 5 4 4 3 3 3 2 2
-0 -1 1 0 4 4 4 3 5 4 6 5 6 6 7 7 7 6 4 7 7 6 5 4 4 4 5 5 4 4 4 4 4 4 5 4 4 4 4 3 4 4 4 4 4 4 4 3 3 3 3 3 3 3
-0 2 3 4 6 6 7 4 7 6 8 7 6 8 8 8 6 5 7 6 5 4 3 3 4 4 4 4 4 4 4 5 5 4 4 4 3 3 4 3 3 4 4 3 3 3 3 3 3 3 2 2 2 2
1 4 6 7 7 8 8 7 6 7 7 8 8 10 9 8 6 7 9 7 6 5 5 5 4 5 5 5 5 5 4 4 4 4 4 4 4 4 3 3 3 3 3 3 3 3 2 2 2 2 2 2 2 2
7 9 8 10 9 10 10 9 9 9 10 9 10 10 9 7 9 9 10 7 6 6 5 5 5 5 5 5 5 5 4 4 5 5 4 4 4 4 3 2 2 2 2 3 3 3 2 2 2 2 2 2 2 2
10 10 10 8 9 9 8 10 10 9 9 10 9 9 8 9 11 11 9 7 6 6 6 6 6 6 6 6 6 5 4 3 4 5 4 3 3 3 3 4 3 3 1 2 2 3 2 2 2 2 2 2 3 3
11 11 9 7 7 7 8 7 7 8 10 11 10 10 10 13 12 9 7 6 6 4 3 4 5 5 4 5 4 4 3 3 3 3 2 2 2 2 2 3 3 2 2 2 2 3 3 3 3 3 3 3 3 4
8 8 10 9 9 7 10 9 9 10 9 8 9 12 12 11 10 7 5 4 4 3 2 2 2 2 3 3 2 2 3 3 3 3 3 2 2 2 2 2 2 3 3 3 3 3 3 4 4 4 4 4 4 3
8 7 7 11 9 9 9 9 9 8 6 8 9 10 9 6 5 5 4 3 2 2 3 3 3 3 3 3 3 2 3 3 4 5 5 4 3 3 2 2 2 3 3 4 4 4 4 4 4 4 4 5 4 4
8 6 8 9 11 10 8 6 7 5 5 5 5 6 6 5 4 3 3 3 4 4 2 2 2 3 3 3 3 3 3 2 3 3 4 4 4 3 3 4 4 4 4 4 4 4 4 4 4 4 5 5 6 6
6 7 8 8 9 7 6 5 5 5 6 6 6 7 7 5 4 3 3 3 3 3 3 4 3 3 3 4 4 5 5 3 3 3 3 3 3 4 4 4 4 4 4 4 4 5 4 4 5 5 6 6 6 6
8 8 8 10 8 7 6 7 6 7 6 7 7 6 7 7 8 5 4 4 4 5 4 4 4 4 3 3 3 4 4 4 3 3 4 4 4 4 4 4 4 4 4 4 4 4 5 5 5 6 6 6 6 6
9 8 8 9 9 9 7 7 8 8 8 8 8 7 7 8 8 5 5 4 4 4 4 4 4 4 4 5 5 4 5 4 4 4 4 3 3 4 4 4 4 4 4 5 5 5 6 6 6 6 6 6 6 6

GFSWCAN_con_lsi_192.txt.gz
Lid_Strength_Index
7 7 7 7 7 7 7 6 6 6 5 5 5 5 5 5 4 5 6 4 6 10 8 7 7 9 8 8 11 9 10 9 10 12 13 12 12 11 12 11 12 14 16 16 15 16 18 7 7 12 9 7 6 7
7 7 7 7 6 6 6 6 6 6 6 6 5 5 5 5 4 4 6 4 4 7 8 5 5 4 5 6 8 8 9 10 9 11 10 10 12 11 12 15 9 14 12 13 13 13 8 7 7 6 6 7 6 7
6 6 6 6 6 6 5 5 5 6 5 5 5 5 4 4 4 4 5 3 4 6 7 7 7 5 4 4 4 9 8 7 8 6 9 10 12 10 13 12 11 9 8 11 11 9 8 7 6 6 6 7 5 5
6 6 6 6 6 6 6 6 5 5 5 5 4 4 4 3 3 3 4 3 4 6 10 9 5 6 4 4 5 5 7 6 5 6 9 9 11 8 11 10 10 9 8 11 11 9 8 8 7 7 6 5 6 5
7 6 6 6 6 6 5 5 5 5 4 4 3 3 3 2 2 2 2 2 2 6 10 9 6 5 4 5 5 5 6 6 7 8 9 11 7 8 8 9 11 9 9 11 12 8 9 9 6 6 6 6 6 6
5 5 5 5 4 4 4 4 5 4 4 4 3 3 2 2 2 3 8 2 1 3 8 12 7 7 5 5 5 5 4 5 5 7 8 7 6 7 11 12 9 8 7 7 8 8 8 7 6 6 6 6 5 5
4 4 4 4 4 4 4 4 4 3 3 3 2 2 2 2 2 5 6 3 1 2 9 12 10 6 5 5 5 4 4 5 5 6 8 8 7 7 10 13 9 8 8 7 7 8 10 8 8 6 6 5 5 5
3 3 3 3 3 3 3 3 3 2 2 2 1 1 1 2 2 4 2 1 1 5 7 12 11 9 5 7 7 4 6 6 6 7 7 8 7 8 12 9 8 7 7 8 8 8 8 7 7 7 6 6 7 6
2 2 2 2 2 2 2 2 1 2 2 1 1 1 2 3 5 4 1 1 1 4 10 10 12 13 5 6 6 6 5 9 6 9 8 7 9 12 9 8 8 7 8 8 8 8 8 8 8 7 7 7 8 7
1 1 1 1 1 1 1 0 1 1 1 1 2 5 6 3 2 2 3 5 6 6 6 10 7 10 6 7 8 8 7 9 12 9 7 10 10 7 6 6 7 7 6 7 9 10 9 9 8 8 8 7 7 7
0 0 0 1 1 0 0 0 0 1 2 3 5 6 3 1 3 4 8 10 9 11 7 7 6 8 4 8 9 7 10 9 15 10 11 11 11 8 6 6 6 6 6 7 8 7 8 8 8 7 7 7 6 6
1 0 0 0 0 0 0 -0 1 1 2 3 3 2 3 6 7 10 11 9 10 10 6 7 7 6 6 5 7 8 10 10 14 8 11 13 9 7 6 6 6 6 7 7 7 8 7 7 7 7 7 7 7 5
1 1 0 0 0 -0 1 0 -0 -0 0 1 4 7 7 8 14 13 16 12 10 7 6 6 8 6 6 6 8 9 11 12 8 12 13 10 8 7 7 7 6 6 6 7 7 7 7 6 6 7 7 7 7 6
1 1 1 1 -0 -0 0 -0 -1 -0 1 6 8 13 11 12 10 9 9 8 6 6 6 6 7 7 7 9 9 12 10 9 13 14 13 9 8 7 6 7 7 7 7 7 7 7 7 7 7 7 6 6 7 7
-0 0 0 0 -0 -1 -1 -1 -2 -1 2 6 7 12 10 7 6 6 5 6 5 5 6 7 7 7 9 11 9 10 12 14 12 12 9 8 7 6 7 7 8 8 7 7 7 7 7 7 7 7 6 6 7 6
-0 -0 -0 -1 -1 -1 -2 -1 -1 0 3 6 6 8 6 8 7 6 6 6 4 5 5 6 9 11 12 10 12 12 13 13 11 9 7 7 7 6 7 7 7 7 8 8 8 7 7 7 6 6 5 6 6 5
-1 1 -1 -1 -2 -2 -2 0 1 4 6 7 7 5 6 6 7 6 5 6 4 6 9 8 11 12 9 12 12 9 11 9 8 8 6 6 7 6 6 6 6 6 7 7 7 7 6 5 5 6 7 6 6 5
1 -1 -1 -2 -2 -1 -0 1 4 6 8 6 7 6 5 5 6 5 5 5 5 6 7 9 7 11 12 13 11 8 7 7 6 7 6 6 7 7 6 7 6 6 7 6 6 6 6 6 7 7 6 6 6 5
-1 -1 -1 -2 -1 2 4 4 4 8 7 5 5 4 5 5 4 4 5 4 4 4 5 7 10 11 10 8 8 7 7 7 7 7 6 6 6 7 7 7 7 7 7 7 7 7 7 6 7 6 6 5 6 5
-2 -1 -2 -2 -1 3 6 5 3 6 8 6 5 6 6 6 5 5 5 5 5 6 8 9 9 8 7 6 6 7 6 6 6 7 7 6 6 6 6 6 7 7 7 7 7 6 7 7 6 6 6 6 6 5
-1 -1 -2 -1 2 3 4 5 6 6 6 6 5 5 6 5 6 6 6 4 6 7 8 7 6 5 4 5 5 5 5 5 6 6 7 8 6 6 7 6 6 6 7 7 7 7 7 8 7 6 6 6 5 5
0 -1 1 0 4 4 5 3 5 4 6 6 6 6 7 8 7 7 5 7 7 7 6 6 6 5 5 6 6 5 5 5 6 6 5 6 7 6 6 6 6 7 7 7 6 7 6 6 6 6 6 6 5 5
-0 1 3 4 5 6 7 3 7 6 8 8 6 8 8 8 7 6 8 7 6 5 4 4 4 5 5 5 5 6 6 6 6 6 6 6 6 6 6 6 6 6 7 6 6 6 6 4 4 5 5 4 4 4
1 4 6 7 7 8 7 8 6 7 7 8 9 11 9 8 7 8 9 8 7 6 6 5 6 6 6 6 7 6 5 6 6 6 6 6 7 7 6 6 6 5 5 5 5 5 5 4 3 4 4 4 4 4
7 8 7 10 7 9 10 9 9 9 11 9 10 11 9 8 10 10 10 9 8 7 7 6 6 6 7 7 6 6 6 6 7 7 6 6 6 7 6 5 4 3 3 4 5 5 5 4 4 4 4 4 4 3
9 8 10 9 10 10 10 10 10 9 9 10 9 8 8 9 12 12 10 9 8 7 7 7 7 8 8 7 8 7 6 6 6 8 6 5 5 5 6 6 6 5 3 3 4 5 5 4 4 5 4 4 2 4
10 12 9 7 7 8 9 8 7 8 10 11 10 10 10 15 13 10 8 7 7 6 5 6 6 7 6 7 6 5 5 4 5 5 4 4 4 4 4 5 6 5 3 4 4 4 5 5 5 5 5 5 5 5
9 8 11 9 9 8 11 10 10 10 9 8 9 11 12 12 11 8 7 6 5 4 4 4 4 4 5 5 5 5 5 5 4 4 5 5 4 4 4 4 4 3 3 3 4 4 5 5 5 5 5 5 4 4
8 7 8 14 9 9 9 9 9 8 7 8 10 10 10 8 6 6 6 5 4 4 5 5 5 4 5 5 5 5 5 5 7 8 7 7 6 5 4 4 4 4 4 4 3 3 5 5 5 5 5 5 4 4
9 6 9 10 13 11 8 7 8 7 7 7 7 7 7 7 6 5 4 4 5 5 4 4 4 5 5 6 6 5 4 4 4 5 7 7 6 6 5 5 5 5 4 5 5 5 3 4 4 5 5 5 5 6
7 7 9 9 9 8 7 6 6 6 7 7 7 8 8 7 6 5 5 5 5 5 5 5 5 5 5 5 6 6 6 4 4 4 5 5 5 5 5 5 4 5 5 4 5 5 5 5 5 6 6 6 6 6
8 8 9 11 9 7 7 8 8 8 7 8 8 7 7 8 9 7 6 6 5 6 5 5 6 5 5 5 5 5 3 5 5 5 5 5 5 5 4 4 3 4 4 5 5 5 5 5 5 5 5 6 6 6
9 8 8 9 11 10 8 9 9 9 8 9 8 7 7 8 9 7 6 6 6 6 6 6 5 6 6 6 6 5 5 6 5 3 4 3 3 3 3 4 4 4 5 5 5 5 5 6 6 6 6 6 6 6

GFSWCAN_con_lsi_198.txt.gz
Lid_Strength_Index
6 7 7 7 7 6 6 6 6 6 6 7 7 7 7 7 6 9 11 9 12 19 15 12 11 14 14 15 19 14 15 15 16 16 17 16 16 14 16 14 15 14 15 18 15 16 17 9 9 13 12 8 8 8
6 7 7 7 6 6 6 6 7 7 7 7 7 7 6 6 6 8 12 9 9 13 13 10 9 8 9 9 11 13 13 13 13 17 17 16 16 16 16 20 12 16 11 13 13 13 9 7 8 7 7 8 8 8
7 7 7 7 6 6 6 7 7 7 7 6 6 6 6 6 5 7 11 10 11 15 14 13 12 9 8 7 7 14 13 10 11 10 15 16 19 16 18 17 16 12 8 11 11 9 8 8 7 6 6 8 7 7
7 7 6 6 6 6 6 6 6 6 6 6 6 5 5 5 5 6 11 10 10 13 17 15 9 10 8 8 7 8 8 8 10 14 17 17 17 13 17 14 15 12 11 11 11 9 8 7 7 8 7 7 7 7
6 6 6 6 7 7 6 5 6 6 6 6 6 6 6 6 5 8 9 8 9 11 17 14 10 8 8 8 8 8 9 11 15 14 17 16 12 13 13 14 13 10 11 12 13 10 9 8 7 7 8 8 7 8
6 7 7 7 7 6 6 6 6 6 5 6 5 5 5 5 5 10 14 8 6 8 16 20 11 10 9 8 8 8 8 11 13 13 14 12 10 9 13 15 10 9 7 7 9 7 7 7 6 7 8 7 7 7
7 7 6 6 5 5 5 6 5 5 5 4 4 4 4 4 9 11 12 8 4 7 14 17 17 11 9 9 9 9 10 12 12 12 11 11 11 8 11 13 9 8 7 7 6 7 8 8 9 7 7 6 6 7
5 5 5 4 4 5 5 5 4 4 4 4 4 4 4 3 5 8 6 2 5 9 8 14 19 15 9 13 13 10 13 14 13 12 11 10 11 10 13 10 9 7 7 7 7 6 8 8 9 9 8 7 8 8
4 4 3 4 4 4 4 4 4 3 4 3 3 3 6 8 11 7 2 3 6 10 20 13 17 19 10 13 13 12 12 16 11 12 11 10 13 12 10 9 8 7 8 8 8 8 9 9 10 10 9 8 8 8
3 3 3 3 3 3 3 3 3 3 3 3 7 9 14 9 3 4 8 11 12 8 11 12 12 16 12 14 15 16 16 12 13 13 8 11 12 8 7 7 7 7 7 7 10 10 10 10 11 11 9 8 8 8
3 3 3 2 2 2 2 2 2 2 3 8 12 12 8 4 9 13 19 18 19 18 15 11 12 14 9 13 14 13 17 19 21 14 12 12 13 8 6 7 7 7 7 8 8 8 8 8 10 10 9 8 7 7
2 2 2 2 2 2 1 1 1 6 7 7 7 7 9 14 18 20 25 20 19 17 14 12 10 10 11 11 13 13 15 16 18 10 12 14 9 7 7 7 7 7 7 8 7 7 8 9 9 9 8 8 8 7
2 2 1 1 1 1 1 1 1 2 3 7 11 16 16 19 21 23 25 21 19 12 11 10 11 12 10 11 15 12 16 15 9 14 13 10 8 7 8 7 7 7 6 6 8 7 8 8 8 8 8 8 8 7
2 2 1 1 1 1 0 -0 1 2 7 13 18 20 20 24 20 20 17 15 11 11 11 10 11 11 11 13 17 16 14 12 13 14 13 11 9 8 8 7 8 8 7 7 7 7 7 8 8 8 8 8 8 7
1 1 1 1 1 0 0 0 1 4 8 15 17 20 19 14 16 13 14 14 10 9 9 12 12 13 17 16 15 15 16 13 12 12 11 10 9 9 9 8 8 9 8 7 7 8 8 9 9 9 9 9 7 6
1 1 3 0 -0 0 0 1 3 5 8 14 14 14 12 13 15 14 11 13 10 10 9 11 17 15 17 16 16 12 13 13 11 9 9 9 7 8 9 8 8 8 8 8 7 8 8 9 9 8 8 7 7 7
1 5 0 -0 -0 -0 0 5 7 10 13 15 15 9 11 11 11 12 9 9 7 10 13 15 17 16 13 14 14 9 11 9 8 9 9 8 6 7 8 8 8 7 7 7 7 7 7 7 7 7 8 7 7 7
5 3 -1 -1 1 1 4 5 11 12 15 9 10 10 10 9 10 9 9 7 8 10 9 11 10 16 16 17 12 9 9 8 8 9 8 7 7 7 6 8 8 7 7 7 7 7 7 7 8 8 7 7 7 7
3 2 -1 -1 2 6 7 6 9 14 12 9 9 9 9 9 8 7 7 7 8 7 7 9 12 11 10 9 9 9 8 8 9 8 8 7 7 7 7 7 7 8 8 8 8 8 7 7 8 7 7 7 7 7
-1 -1 -2 -1 2 11 15 10 5 8 12 9 8 9 8 8 7 7 8 10 9 8 9 11 11 9 8 7 8 8 7 7 8 9 8 7 7 7 7 8 8 8 8 8 8 6 8 8 8 8 8 8 8 8
0 0 -1 2 5 9 11 13 8 7 7 9 8 8 8 8 9 11 10 8 11 9 10 8 9 7 6 6 7 7 7 7 7 8 7 7 7 8 8 8 8 8 9 9 9 9 8 10 9 9 8 9 9 8
3 -0 4 2 6 5 7 7 9 6 8 8 9 8 10 10 9 10 10 10 9 8 9 8 7 6 7 7 6 6 6 6 6 6 4 6 8 8 8 8 8 8 8 8 8 9 8 8 9 9 9 8 7 8
2 3 5 5 9 8 12 5 7 7 10 14 10 12 13 11 9 7 9 8 8 7 6 6 6 6 6 6 5 5 6 7 7 7 7 7 8 8 8 8 8 8 8 8 8 8 7 5 6 7 7 7 6 6
2 8 8 9 15 14 12 11 9 10 9 13 14 16 13 11 8 10 10 9 8 8 7 7 7 8 8 7 8 7 6 7 7 7 7 8 9 8 8 7 7 7 7 7 7 7 7 6 4 6 6 6 6 6
12 9 9 16 13 14 15 16 14 11 16 12 12 14 12 9 12 12 10 9 9 9 8 8 8 8 8 9 8 7 6 7 8 8 8 7 7 8 8 7 6 5 5 6 6 6 6 5 5 5 5 5 5 5
17 14 11 14 14 12 12 15 13 11 11 15 11 10 10 12 14 13 10 9 10 9 9 8 8 9 9 8 8 8 7 7 7 8 7 7 7 8 7 7 7 6 5 5 6 6 6 6 5 6 6 5 3 5
17 14 11 9 9 10 11 10 10 12 13 14 14 14 15 17 15 10 8 9 9 8 7 8 8 8 8 8 8 6 6 7 7 7 6 5 5 5 6 7 7 6 5 5 5 5 6 6 6 6 6 6 6 6
12 11 12 10 10 9 13 15 13 12 11 11 11 14 15 13 12 9 8 7 7 6 6 5 5 6 7 7 7 6 6 6 5 6 6 6 6 6 6 6 6 3 5 5 5 5 6 6 6 6 6 6 6 6
11 10 11 16 12 11 11 10 11 9 8 9 11 12 11 9 8 8 7 7 5 5 6 6 6 6 6 6 6 6 6 6 7 8 9 9 9 7 6 6 6 6 6 6 3 4 5 6 6 6 6 6 6 6
10 9 13 13 15 14 10 9 9 9 9 8 8 9 9 9 7 7 7 7 7 7 6 6 6 7 7 8 8 7 7 6 6 7 8 8 8 7 7 7 6 6 7 7 6 6 4 4 4 4 5 5 5 5
9 10 13 13 14 11 9 8 8 8 8 9 8 9 9 8 8 7 7 7 6 7 7 8 7 7 7 8 8 8 7 6 6 6 5 6 6 6 6 6 6 6 6 5 6 6 5 5 5 5 5 6 6 6
11 12 12 15 14 11 10 10 10 10 11 11 11 11 9 9 10 8 7 7 8 8 6 6 8 7 7 7 6 6 3 6 6 6 5 6 6 6 6 6 5 5 5 5 4 4 4 4 4 5 5 6 5 6
10 10 10 11 14 14 11 11 12 13 13 13 11 10 9 9 10 7 7 7 7 7 8 7 7 7 7 6 6 6 4 6 5 3 2 3 3 4 5 4 3 3 4 4 4 4 4 5 5 5 5 6 6 6

GFSWCAN_con_lsi_201.txt.gz
Lid_Strength_Index
5 6 6 6 6 7 7 6 6 6 7 7 8 8 7 7 7 11 13 12 15 21 17 13 13 16 15 17 21 16 18 17 18 21 19 17 16 16 17 16 17 20 23 20 17 16 18 8 9 12 10 8 8 8
6 6 6 7 7 7 6 6 7 7 7 7 7 7 7 7 7 10 13 11 11 15 16 12 11 11 12 12 14 15 16 15 14 18 17 16 17 16 17 20 15 19 15 13 14 15 9 8 8 7 7 8 7 9
6 6 7 7 6 6 7 7 7 7 7 7 7 7 7 7 7 9 12 12 13 16 17 16 15 12 10 9 9 16 14 11 12 11 16 16 19 16 19 18 17 14 11 14 14 10 9 9 7 6 6 8 7 8
6 7 7 6 7 7 7 7 7 7 7 7 7 7 7 7 7 9 12 12 13 15 20 16 11 13 11 10 9 8 9 9 11 14 18 18 18 13 17 15 15 11 12 13 13 11 9 9 7 7 7 7 8 7
7 7 7 7 7 7 7 7 7 7 7 7 8 8 8 7 7 10 11 11 10 14 20 16 13 11 10 10 10 9 9 12 16 15 18 17 13 14 15 14 12 11 12 15 15 10 10 9 7 7 7 8 8 8
6 6 7 7 7 7 7 8 7 7 7 7 7 7 6 6 7 12 16 10 8 11 18 22 14 13 10 9 9 10 9 13 15 14 15 13 11 11 14 15 10 9 8 9 10 7 8 8 7 6 7 8 7 7
6 7 7 7 7 7 7 7 7 7 7 6 6 6 6 6 11 12 14 10 7 10 18 20 18 13 11 10 10 11 11 15 13 14 11 13 12 8 10 13 9 8 7 8 7 7 9 9 9 7 8 7 6 7
7 7 7 6 6 7 7 6 6 6 6 6 5 5 4 5 6 9 8 5 8 13 14 22 20 15 11 13 14 11 15 16 14 14 13 11 11 12 13 11 9 8 7 8 7 7 7 7 7 8 9 8 8 8
6 6 6 6 6 6 6 5 5 5 5 5 4 4 8 10 13 9 4 5 8 13 21 22 18 19 11 14 14 13 14 17 13 11 11 11 13 15 11 8 7 7 8 8 7 8 8 9 9 10 10 10 9 9
5 5 5 5 5 5 5 4 4 4 4 4 8 11 15 11 4 5 11 14 13 10 10 19 15 15 13 15 17 18 18 15 14 13 9 10 13 8 6 6 6 7 7 8 10 10 10 10 10 10 10 9 9 9
5 5 5 4 3 3 3 4 4 3 5 9 13 14 10 6 11 14 21 19 20 19 18 14 13 15 11 15 16 15 18 18 19 14 11 13 12 8 7 7 7 7 7 8 8 8 9 9 9 10 10 9 9 8
4 3 2 2 2 3 3 3 3 7 9 9 9 9 11 16 19 21 27 23 20 18 15 13 12 12 12 13 15 14 15 15 18 11 12 13 9 8 7 8 7 7 8 7 7 8 8 8 9 9 10 9 8 8
2 2 2 2 2 2 2 2 3 3 5 9 13 18 18 21 22 24 26 22 20 14 12 12 13 14 12 14 17 12 15 16 9 13 13 11 8 7 8 8 8 7 7 7 7 8 8 8 9 9 10 9 8 8
1 1 1 2 2 2 2 1 2 4 9 15 19 20 21 25 22 21 19 17 12 13 13 12 12 13 12 14 18 17 14 13 15 14 13 10 9 8 7 8 8 8 8 8 8 7 8 8 9 9 9 8 8 7
1 2 2 2 2 1 1 1 2 6 10 16 18 21 19 15 17 15 17 16 12 11 11 14 14 14 18 17 16 15 16 16 12 12 11 9 9 7 7 8 9 9 8 8 7 7 8 9 9 9 9 8 7 7
2 2 4 2 1 1 1 3 5 7 12 16 16 17 13 14 17 16 13 15 11 11 11 12 17 14 15 16 16 15 13 13 12 10 9 9 7 7 7 8 9 8 7 7 7 7 8 9 8 8 8 8 8 8
2 6 1 1 1 1 2 6 8 13 15 18 18 11 12 12 13 15 11 11 9 12 16 17 18 16 15 17 17 10 11 9 9 9 9 8 7 7 6 6 8 8 7 7 7 7 8 8 8 8 9 8 8 7
6 4 0 0 1 2 5 7 11 13 18 17 13 12 12 11 11 11 10 9 9 10 10 12 10 17 17 19 12 10 9 9 8 9 9 8 8 7 6 7 8 8 7 7 7 7 7 7 8 8 7 7 7 7
4 2 -0 0 4 7 11 7 11 18 15 11 11 11 10 10 9 8 8 8 9 9 8 11 12 12 11 9 9 9 9 9 9 8 8 8 7 8 7 7 8 8 8 8 8 8 8 8 8 8 8 8 8 8
-1 -0 -0 0 3 12 15 9 6 9 14 11 10 10 10 9 9 8 9 10 9 11 11 11 12 9 9 8 8 8 8 8 8 9 8 7 7 8 8 8 8 9 9 9 8 6 8 8 8 8 8 8 9 9
1 1 0 3 6 11 13 10 12 9 8 11 9 9 9 9 10 11 10 9 13 11 10 9 9 8 7 7 7 7 7 8 8 8 8 8 7 8 8 8 8 8 9 9 10 9 8 10 10 10 10 10 9 9
3 0 4 3 6 7 11 12 10 7 9 9 9 8 10 11 9 10 11 10 10 9 9 8 7 7 8 8 6 7 6 7 7 6 4 5 8 8 8 9 8 9 9 9 9 10 9 9 9 9 9 8 7 7
1 4 5 5 8 8 12 6 9 8 10 12 10 12 13 11 9 8 9 8 8 7 7 7 7 7 7 6 6 6 6 7 8 8 7 7 7 8 9 9 9 9 9 9 8 9 8 5 6 7 8 8 7 7
3 11 11 9 12 14 12 10 9 11 9 11 13 16 13 12 9 10 10 9 8 8 8 8 7 8 8 8 8 7 6 7 7 8 8 8 8 9 8 8 8 8 8 8 8 8 7 7 5 6 7 7 7 6
12 9 12 13 12 14 16 17 15 11 16 13 14 16 13 10 13 12 11 9 9 9 9 8 9 8 8 8 8 8 7 7 8 8 7 7 8 9 8 8 7 6 6 6 6 6 6 6 6 6 6 6 6 5
18 14 11 13 13 13 13 16 14 12 11 16 12 11 11 12 14 13 10 9 9 9 8 8 8 8 8 8 8 8 7 7 7 8 8 7 8 8 8 7 7 6 5 6 6 6 6 6 6 6 6 6 4 5
19 15 11 10 10 10 12 10 10 12 13 14 14 15 16 17 16 11 9 8 8 8 7 7 8 8 8 8 8 7 7 7 7 7 7 6 6 6 6 7 7 6 5 5 5 5 6 6 6 6 6 6 6 6
13 11 12 11 11 10 14 15 13 13 11 11 12 15 15 14 13 10 9 8 7 6 6 6 6 7 7 8 7 6 6 6 5 5 6 6 6 6 6 6 6 3 5 5 5 5 6 6 6 6 6 6 7 6
11 10 11 14 12 11 11 11 11 10 9 10 11 12 11 9 8 8 7 8 6 6 6 6 6 6 7 7 6 6 6 6 7 8 8 8 9 8 7 7 7 6 6 6 3 4 6 6 6 6 6 6 6 6
10 9 13 13 15 14 11 9 10 9 9 9 9 9 9 9 8 7 8 8 8 7 6 6 6 6 7 7 7 7 7 7 7 7 8 9 9 8 7 7 7 7 7 7 7 6 4 5 5 5 5 6 6 5
9 10 12 13 14 12 10 9 9 9 10 11 10 10 9 9 8 7 7 7 7 7 7 7 7 6 7 7 8 8 8 7 7 6 6 7 7 7 7 7 7 7 6 6 6 6 6 6 6 6 6 6 6 6
11 12 12 15 14 12 11 11 11 11 11 11 11 11 10 9 10 8 7 8 8 8 6 6 8 7 6 6 7 7 4 6 6 6 6 6 6 6 6 6 6 6 6 6 6 5 4 4 5 5 6 6 6 6
12 11 11 12 14 14 11 12 12 13 13 13 12 10 10 10 10 8 8 8 8 8 8 7 7 7 7 7 7 6 5 6 5 3 3 3 3 4 5 5 4 4 4 4 4 4 4 4 4 4 5 5 5 5

GFSWCAN_con_lsi_204.txt.gz
Lid_Strength_Index
3 4 4 5 5 5 5 5 6 7 7 8 8 8 7 7 8 12 14 13 16 21 18 15 15 18 18 19 22 19 21 20 21 25 22 19 18 18 18 18 18 20 25 25 22 20 19 9 10 12 9 8 8 7
4 4 5 6 6 6 6 6 6 7 8 8 8 8 8 8 8 10 14 12 13 17 17 14 14 13 14 15 17 18 19 18 16 20 19 18 17 17 18 22 16 20 17 20 15 16 10 9 9 7 8 9 8 7
5 5 6 6 7 6 6 6 7 8 8 8 8 8 8 8 8 11 14 14 15 19 19 18 17 14 12 12 11 17 17 14 14 13 17 19 21 17 21 19 18 15 13 15 14 12 11 9 8 8 7 7 7 7
6 6 7 7 7 7 7 7 7 8 8 8 8 8 8 8 8 10 14 14 15 18 23 19 14 15 12 12 12 11 12 12 13 16 20 20 19 14 18 15 15 12 14 15 15 11 10 9 8 8 7 7 7 7
6 6 6 6 7 7 7 7 8 8 7 8 9 8 8 8 8 11 13 13 13 17 23 19 16 14 12 12 12 12 12 13 17 17 20 17 14 16 16 14 14 12 12 13 13 9 11 9 8 7 8 8 7 8
6 7 7 7 7 7 7 8 8 8 8 8 8 8 7 8 10 13 17 12 11 12 18 23 16 15 13 12 12 12 12 15 16 15 16 14 13 14 18 16 12 10 8 7 9 7 7 7 7 7 8 7 7 8
7 7 7 7 7 8 8 8 8 8 7 7 8 8 8 8 11 14 15 11 9 12 18 23 20 15 14 13 13 13 13 15 15 16 12 13 13 9 12 14 10 8 7 7 7 8 9 8 9 7 8 7 7 8
7 7 7 7 7 7 8 7 7 7 7 7 7 7 7 7 8 11 9 7 10 15 17 25 22 18 13 16 15 13 16 16 14 11 13 11 12 13 13 11 9 7 6 6 6 7 8 7 7 8 7 8 9 9
6 6 6 6 7 7 7 6 7 7 7 7 6 7 10 12 14 11 5 7 10 14 22 25 22 21 13 16 15 14 14 16 14 12 11 11 13 14 11 8 8 7 7 8 7 7 8 9 8 8 8 10 9 9
5 6 6 6 6 6 6 6 6 6 6 6 10 13 15 13 6 7 13 15 17 17 13 21 18 18 14 16 18 18 19 20 20 15 11 12 13 8 7 7 7 7 7 7 10 9 9 9 9 10 10 10 9 9
5 6 6 6 6 6 6 6 5 6 8 11 14 15 11 8 12 16 22 21 23 22 22 16 15 16 12 16 17 16 20 16 21 15 12 13 13 9 8 8 7 8 8 8 8 8 8 8 9 9 9 10 10 9
5 5 5 5 5 6 6 5 5 9 10 10 11 11 13 18 21 21 29 26 21 19 16 15 13 13 14 14 16 17 17 17 19 12 12 13 10 8 8 7 7 8 8 8 7 7 8 8 9 9 10 10 9 8
5 4 5 5 5 5 5 4 5 5 7 10 15 19 18 22 23 25 27 24 21 15 14 13 14 14 14 16 19 15 16 16 11 12 12 10 9 8 8 7 7 8 8 7 7 7 8 9 8 9 10 9 9 7
3 4 4 3 3 3 3 3 3 6 11 16 20 22 23 26 24 23 21 18 14 13 13 13 13 14 14 16 20 18 16 14 14 14 14 10 10 8 7 7 8 9 8 8 7 8 8 8 9 9 10 9 8 8
2 1 1 1 1 2 2 3 4 8 12 17 18 21 22 17 19 17 18 17 13 12 12 16 16 15 19 18 17 17 18 17 12 12 11 9 9 9 8 7 8 9 8 7 7 7 8 8 8 8 9 8 8 8
1 1 4 0 1 1 2 4 7 9 14 17 17 17 15 16 18 17 14 16 13 12 12 14 18 17 17 18 17 15 15 13 13 10 9 9 9 9 7 6 7 7 7 7 7 7 7 7 8 8 8 9 8 7
2 6 1 1 1 2 3 7 9 15 17 18 17 12 13 14 14 15 13 12 11 13 17 20 19 17 16 19 18 12 12 9 9 9 9 10 10 8 7 7 7 6 7 7 7 7 8 7 7 8 9 8 8 8
7 3 1 1 3 4 6 9 11 14 16 17 14 13 13 12 12 12 12 12 11 12 13 15 12 18 16 19 14 11 9 9 10 9 9 9 8 7 7 8 7 7 7 7 7 7 7 7 8 9 8 8 8 8
4 2 0 1 5 8 11 10 12 17 15 12 12 12 11 11 11 10 10 10 11 10 9 13 12 13 11 10 10 10 10 9 8 8 8 8 8 8 8 7 7 8 7 8 7 8 8 9 9 9 9 9 9 8
-0 0 1 2 4 11 14 9 10 14 15 12 11 12 11 11 10 10 10 11 10 12 9 12 12 10 10 9 8 8 8 8 8 9 8 7 7 8 9 9 8 8 8 8 7 6 8 8 9 9 8 8 9 9
1 1 2 5 7 12 14 9 13 13 11 12 11 10 10 10 11 12 11 9 14 13 11 9 9 8 8 7 7 7 8 8 8 8 8 8 7 8 8 8 8 8 9 9 9 9 8 9 9 9 9 9 10 9
2 1 4 4 8 7 15 13 12 10 11 10 11 10 11 12 10 11 11 11 10 9 9 9 7 7 7 8 7 7 6 7 7 7 5 5 7 8 8 8 8 9 9 9 9 10 9 9 8 9 9 9 8 7
2 4 5 6 10 12 13 6 11 9 11 12 11 13 15 12 10 9 10 9 8 7 7 8 7 7 7 7 7 7 7 7 8 8 7 7 8 8 9 9 9 9 9 9 9 9 9 6 7 8 8 8 8 8
4 11 12 11 16 16 12 14 11 13 10 14 11 14 14 13 10 12 10 10 8 8 8 8 7 8 9 9 9 8 7 7 7 8 8 8 9 8 9 9 8 8 8 8 7 8 8 7 6 7 7 7 7 7
12 13 13 12 11 13 18 18 15 12 15 14 15 17 14 11 14 13 11 9 9 9 9 8 9 9 9 9 8 8 7 7 7 8 8 8 8 9 9 8 7 6 6 7 7 6 7 7 7 7 7 6 7 7
19 14 12 13 12 13 14 17 15 13 12 17 12 11 11 13 15 13 11 9 9 9 8 8 9 9 10 9 8 8 8 7 8 8 8 8 8 8 8 8 7 6 6 6 6 6 6 6 6 6 7 6 4 6
20 17 11 10 10 11 12 11 11 13 14 15 15 16 16 16 16 12 9 9 8 8 7 7 8 9 9 9 8 8 7 7 7 7 7 7 7 7 7 7 7 6 5 5 5 6 6 6 6 6 6 6 7 6
14 12 13 11 11 10 14 15 14 13 12 12 12 15 15 14 13 9 9 8 8 7 6 6 7 8 8 8 8 7 6 6 6 6 6 6 7 6 6 6 6 3 5 5 5 5 6 6 6 6 6 6 7 6
12 11 11 12 13 11 12 11 12 10 10 11 12 13 11 9 8 8 8 8 7 7 7 7 7 7 7 7 7 7 6 6 7 8 8 8 9 8 7 7 7 6 7 6 3 4 5 6 7 6 6 6 6 6
12 10 13 14 15 14 11 9 10 9 10 9 9 9 10 10 8 8 8 8 8 7 7 7 7 7 7 8 7 7 7 6 6 7 8 9 8 8 8 7 7 7 7 7 7 6 4 5 5 6 6 7 7 6
10 11 13 13 14 12 10 10 9 9 10 11 11 10 9 8 8 8 8 8 8 7 8 8 7 7 7 7 7 7 8 7 7 6 6 7 7 7 7 7 7 7 7 7 7 7 7 7 7 7 6 6 6 6
12 12 13 16 15 13 11 11 12 12 12 12 12 12 11 10 11 8 8 8 9 9 6 6 8 7 6 6 6 6 4 6 6 6 6 6 7 7 6 7 7 7 6 6 6 6 6 5 5 5 5 6 6 6
13 12 12 13 15 14 12 13 14 14 13 14 13 11 11 10 11 8 9 9 8 9 9 8 7 7 7 6 6 6 4 6 5 3 3 3 3 4 6 6 6 5 6 5 4 4 4 4 4 4 5 5 5 5

GFSWCAN_con_lsi_207.txt.gz
Lid_Strength_Index
2 2 2 3 4 4 5 5 6 7 7 8 8 7 8 8 9 12 14 14 17 20 18 16 16 18 18 20 23 20 22 20 22 26 23 21 20 19 20 18 17 18 22 22 21 22 20 8 9 13 10 8 7 8
2 2 3 4 4 5 5 6 6 7 7 8 7 7 8 8 9 11 15 14 14 17 17 15 15 14 15 16 18 19 20 19 18 20 20 19 19 19 18 20 16 19 16 18 16 15 10 8 8 8 7 8 8 8
3 4 4 4 4 5 5 6 7 7 8 8 8 8 8 8 9 12 15 15 16 18 18 18 18 15 14 14 13 18 18 16 16 16 19 21 22 18 19 18 17 15 13 14 14 11 10 8 8 7 7 8 7 7
4 4 4 5 5 6 7 7 7 8 8 9 9 9 9 9 9 11 14 14 16 18 21 19 15 16 14 14 13 13 14 14 15 17 21 21 20 15 17 14 15 12 12 13 13 11 10 8 8 8 7 7 7 7
5 6 6 5 6 7 7 7 7 8 8 9 9 8 8 9 10 12 14 14 14 17 22 20 17 16 15 14 14 13 13 15 18 19 20 18 14 15 15 14 15 11 11 12 13 9 9 8 7 6 7 8 7 7
6 6 7 7 7 7 8 8 8 9 9 9 8 8 9 10 11 14 17 13 12 14 20 24 18 18 16 14 14 14 13 17 18 17 17 14 13 13 18 16 12 10 8 7 8 7 7 6 6 6 7 7 7 7
6 6 7 8 8 8 8 8 9 9 9 9 9 9 9 9 12 15 16 13 11 14 21 24 21 16 16 15 15 15 15 17 17 17 13 13 14 12 13 15 10 8 7 6 5 6 7 6 8 6 7 7 6 7
8 8 7 7 7 8 8 9 9 9 9 9 8 8 8 8 10 12 11 10 13 18 20 25 23 19 15 17 18 15 17 18 13 11 11 11 11 12 13 10 9 6 6 7 6 6 7 6 7 7 7 7 8 9
7 7 7 8 8 8 8 8 8 8 7 7 7 9 11 13 14 12 9 11 13 16 23 24 22 22 15 18 17 17 16 18 15 13 12 11 15 13 10 8 7 7 8 8 8 7 7 8 8 8 8 9 10 9
6 7 8 8 8 8 7 7 7 7 7 7 12 14 16 14 8 10 15 17 19 21 20 22 20 19 16 17 21 20 20 20 22 16 12 14 13 8 6 6 6 7 8 8 10 9 9 9 8 9 9 9 9 9
7 7 7 7 6 6 6 6 6 6 9 12 14 15 14 11 14 17 23 21 22 23 22 17 17 18 14 18 18 17 20 17 23 16 13 14 12 8 7 8 7 7 7 8 8 8 8 8 9 9 9 9 9 8
6 5 5 5 5 6 6 6 7 11 12 12 13 13 15 19 22 23 28 25 20 19 17 16 15 15 17 15 17 18 19 18 20 13 15 13 9 8 8 7 7 7 8 8 7 8 8 8 9 9 9 9 9 7
5 5 6 5 6 6 5 6 7 8 10 13 16 18 18 21 23 25 28 25 22 16 15 15 16 16 16 17 20 17 19 18 12 14 13 12 8 8 8 7 7 6 7 7 7 7 8 8 8 9 9 9 8 7
4 5 5 5 5 5 5 6 7 9 13 17 18 20 21 25 22 21 21 19 16 15 15 15 15 16 15 17 21 19 18 15 16 14 14 10 9 9 8 7 7 7 6 6 7 7 8 8 8 8 8 8 8 8
4 4 4 4 4 4 5 6 7 10 13 18 17 20 21 17 19 18 20 19 15 14 14 17 17 16 18 20 18 18 18 18 13 13 11 10 9 9 9 8 7 6 6 6 6 7 8 8 7 8 8 8 7 7
3 4 5 4 4 4 5 7 9 10 14 16 17 18 16 16 19 18 16 18 14 14 14 15 19 21 20 19 20 16 16 14 13 11 9 9 10 9 8 7 6 6 6 6 6 6 7 7 7 7 7 8 8 7
4 7 2 2 3 4 4 8 10 17 17 18 18 14 14 15 16 17 14 14 13 14 19 21 21 18 17 21 19 13 14 10 9 9 9 10 10 9 8 7 7 6 7 7 7 7 7 6 6 7 8 8 8 7
6 2 1 2 4 5 8 10 15 18 20 19 16 14 13 13 14 14 13 13 12 14 14 16 14 18 16 18 15 12 10 9 10 10 9 9 9 9 7 8 7 7 7 8 7 7 7 8 8 9 8 8 8 8
2 2 1 2 5 9 13 13 14 19 18 13 13 12 12 12 12 11 11 11 12 11 12 13 13 12 12 11 11 10 10 10 9 8 8 8 8 8 8 8 7 7 7 8 7 8 8 9 9 9 9 9 9 8
0 1 2 3 5 12 15 12 12 15 15 12 11 12 12 12 11 11 11 12 12 14 12 13 11 10 10 9 9 8 8 8 8 8 8 8 8 8 8 8 9 8 8 8 8 6 7 8 8 9 8 8 9 8
2 3 3 6 11 12 13 12 15 13 11 13 11 11 12 11 13 13 12 10 16 13 10 9 10 9 8 8 8 7 8 8 8 8 8 8 7 8 7 8 8 8 9 9 9 9 8 9 8 9 9 9 9 8
3 2 7 7 11 14 13 13 12 10 11 11 11 11 13 13 11 12 12 12 12 10 10 9 8 7 8 8 8 8 7 8 8 8 5 5 8 8 8 8 8 8 9 9 9 9 9 8 7 8 9 8 7 7
3 5 10 13 14 15 13 7 14 9 12 13 12 14 15 13 10 9 11 10 10 8 8 8 8 8 8 7 8 8 8 8 9 8 8 8 7 7 8 8 8 8 8 9 9 9 9 6 7 8 8 7 7 8
5 13 15 16 18 18 15 16 12 13 10 15 12 15 15 14 10 12 11 10 9 8 8 8 8 8 9 9 9 8 7 8 8 8 8 8 8 8 8 8 8 8 8 8 8 8 8 7 6 7 7 7 7 7
13 16 15 12 12 14 19 17 12 12 15 15 16 17 15 12 15 14 12 10 10 9 9 9 9 10 10 10 9 8 7 7 8 8 7 8 8 9 8 8 8 7 6 6 6 6 6 7 7 7 6 6 7 7
20 15 16 16 13 14 14 17 15 14 13 18 13 13 12 14 15 14 11 10 9 9 9 9 9 9 10 10 9 8 8 8 8 8 8 8 8 8 8 8 8 7 5 5 6 6 6 6 6 6 7 6 5 6
21 17 12 10 11 11 13 12 12 13 14 16 15 16 17 17 16 12 10 9 9 8 8 7 8 8 9 9 8 8 8 8 8 7 8 8 7 7 7 8 7 5 5 5 5 6 6 6 6 6 6 6 7 7
15 12 13 12 12 11 15 16 14 14 13 12 13 16 15 14 13 10 9 8 8 7 7 6 6 7 8 8 8 8 8 8 6 6 7 7 7 6 6 6 6 3 5 5 5 5 6 6 6 6 6 6 7 6
13 11 11 12 13 12 12 12 12 11 10 11 12 13 12 10 9 9 8 8 8 8 8 7 7 7 7 7 7 8 7 7 7 8 8 8 9 7 7 7 6 6 6 5 3 4 5 6 6 6 6 6 6 6
12 10 13 14 15 14 11 10 10 10 10 10 9 10 10 10 9 8 8 9 8 8 7 7 7 7 7 8 8 7 7 7 6 7 8 8 8 8 7 7 6 7 7 6 6 6 3 5 4 6 6 7 7 6
10 12 14 13 14 12 11 10 10 9 11 12 11 11 9 9 8 8 8 8 8 8 8 8 8 7 7 8 8 8 8 7 7 6 6 7 7 7 7 7 7 7 7 7 7 7 6 6 7 7 6 6 6 6
12 13 13 16 15 14 12 12 13 12 13 12 12 13 11 11 12 9 8 9 10 10 7 7 9 8 7 6 6 6 3 6 6 6 6 6 7 7 7 7 7 7 7 6 6 7 6 6 5 5 6 6 6 6
13 12 13 14 16 15 13 13 14 15 15 15 13 11 11 11 11 9 9 9 9 10 9 9 8 8 8 7 7 6 4 6 5 3 3 3 3 4 6 7 6 6 6 6 6 6 6 5 5 5 5 5 5 5

GFSWCAN_con_lsi_210.txt.gz
Lid_Strength_Index
1 1 1 2 2 3 4 5 5 6 7 7 7 7 8 8 9 10 12 12 11 14 14 14 14 15 15 14 16 16 16 16 16 19 18 18 19 18 19 18 18 18 18 16 15 17 18 7 9 12 9 7 7 7
1 1 1 2 3 4 4 5 6 6 7 7 7 8 8 8 9 10 13 12 11 12 14 13 13 12 13 13 14 15 16 16 15 17 16 16 18 17 18 19 15 17 13 14 13 12 8 7 8 6 5 6 6 6
1 1 1 2 3 4 5 6 7 7 7 7 7 8 8 9 9 11 13 12 12 14 15 14 15 13 11 12 11 14 14 14 14 13 14 15 18 15 18 17 15 12 10 12 12 9 8 7 6 5 5 5 5 5
1 1 2 3 4 5 6 7 7 8 8 8 8 9 9 9 10 10 13 12 13 14 16 17 13 14 12 12 12 12 13 13 12 12 13 14 16 13 14 13 13 10 9 10 9 7 7 6 5 5 4 4 5 5
2 2 3 4 5 5 6 7 8 8 9 9 9 9 9 10 10 11 12 12 13 14 17 17 15 15 14 13 13 12 12 12 12 13 13 14 12 13 11 12 12 8 9 10 11 7 7 6 4 4 5 5 5 5
3 4 5 5 6 7 8 8 8 9 9 9 9 9 10 11 12 12 15 12 13 13 15 18 16 16 14 13 13 13 12 12 11 11 12 11 12 11 13 13 9 7 6 5 7 5 6 5 4 3 5 5 5 5
5 5 6 6 7 8 8 8 9 9 9 9 9 9 9 10 11 14 15 13 12 13 15 18 18 16 15 13 13 12 12 12 11 12 12 11 11 9 11 13 8 6 5 4 4 5 7 5 5 5 5 5 5 5
6 7 7 7 8 8 9 9 9 9 8 9 9 10 10 10 11 14 12 12 12 15 15 18 18 16 14 14 14 12 12 12 12 12 12 13 11 10 12 8 6 5 5 5 5 5 6 5 5 5 4 5 6 6
8 8 8 7 8 9 9 9 9 9 9 9 10 10 11 13 14 12 11 12 12 13 17 16 18 18 13 14 13 12 12 13 12 13 12 11 11 13 9 7 6 5 6 6 5 6 5 5 5 5 5 6 6 6
8 7 7 7 8 8 9 9 9 9 9 10 12 14 16 13 10 11 13 14 15 16 14 16 16 16 14 13 14 13 13 14 14 12 10 11 11 8 6 5 5 5 5 5 7 7 7 7 7 7 7 6 6 6
7 7 7 8 8 8 9 9 8 9 11 13 14 15 13 12 13 16 19 18 18 17 15 15 14 14 12 14 13 13 14 14 15 13 12 12 11 7 5 5 4 4 4 4 5 5 6 7 7 7 7 6 5 5
8 8 8 8 8 8 8 8 8 11 12 11 13 13 14 16 17 18 22 20 18 17 15 14 13 12 12 11 12 13 14 13 16 10 12 13 8 6 5 5 4 4 4 4 3 5 6 6 6 6 6 6 5 5
7 7 7 7 7 8 7 7 8 9 11 12 14 17 15 19 20 20 22 20 18 15 13 13 14 12 12 11 13 12 15 14 10 12 12 9 7 5 5 5 5 4 3 4 4 4 5 6 5 5 6 6 5 4
7 7 6 6 5 6 7 7 8 10 12 15 16 20 19 20 19 18 17 16 14 12 12 12 13 11 12 13 14 15 12 12 14 14 13 8 6 5 5 5 5 5 5 6 4 4 5 5 5 5 6 5 5 5
5 5 5 5 5 6 7 7 9 10 12 16 15 19 19 18 17 17 16 13 13 11 11 12 12 11 13 14 13 14 15 15 12 11 8 6 5 5 6 5 5 5 5 6 5 4 5 5 5 5 5 5 4 4
4 5 6 4 5 6 7 8 10 11 14 14 16 17 17 15 16 15 14 13 11 11 10 10 14 14 15 13 15 15 15 14 10 7 5 5 5 5 6 6 5 5 5 6 5 4 5 5 5 5 5 5 5 4
5 7 4 4 5 6 7 9 11 16 15 15 15 14 13 13 13 13 12 11 10 10 11 12 14 15 14 14 15 11 11 8 6 5 4 5 5 5 5 5 5 5 6 6 5 5 5 5 4 5 6 5 5 4
7 5 4 5 6 8 10 11 14 14 16 15 14 13 12 12 12 12 11 11 9 10 10 11 11 13 14 14 12 9 7 5 4 5 5 5 5 4 5 5 5 5 5 5 5 5 5 6 6 7 6 6 5 5
3 3 3 4 7 10 12 12 11 15 14 13 12 11 11 11 10 10 9 9 8 8 9 9 11 12 11 9 9 7 6 6 5 5 4 4 4 4 5 5 5 5 5 5 5 5 6 6 7 6 6 5 5 4
1 2 4 5 6 10 12 12 10 12 13 12 11 11 11 10 9 9 9 9 8 8 10 11 10 8 8 6 5 5 5 4 5 5 5 4 4 4 4 4 5 5 5 5 5 5 5 5 5 6 5 5 5 5
3 4 4 6 9 10 11 12 12 11 11 12 10 10 10 9 9 10 9 8 9 9 9 8 7 6 5 5 4 4 4 4 5 5 5 5 4 4 4 3 4 4 5 6 6 6 5 5 5 5 5 4 4 4
3 3 7 6 10 11 11 11 11 10 10 10 10 9 10 10 9 9 8 9 9 8 7 7 6 5 5 5 5 4 4 4 4 5 4 4 5 4 4 3 4 5 5 5 6 6 6 5 4 5 5 4 4 4
3 5 9 11 12 12 11 8 11 9 13 12 10 11 11 10 9 8 10 8 7 6 6 6 5 5 5 4 5 5 5 5 5 5 5 4 4 4 4 3 4 5 5 5 5 6 6 5 5 5 4 4 4 4
5 10 13 14 13 14 11 13 10 10 10 12 11 13 12 10 9 9 10 8 6 5 5 5 5 5 5 6 6 5 4 4 5 5 4 4 4 4 4 3 4 4 4 4 4 5 5 4 4 4 4 4 4 5
11 14 13 13 12 13 14 12 12 12 14 13 13 13 11 9 10 11 11 8 7 6 6 5 6 6 6 5 5 5 4 4 5 5 4 4 4 5 5 4 4 4 4 4 4 4 4 4 3 3 4 4 4 5
16 13 14 13 12 12 12 14 14 13 12 14 12 10 10 10 13 12 9 7 6 6 5 5 5 5 6 6 6 5 4 5 5 5 4 4 5 4 4 5 5 4 3 3 3 3 3 3 4 4 4 5 5 5
18 15 12 9 9 10 11 11 11 11 12 13 11 12 11 14 14 10 7 6 6 5 5 4 4 5 5 5 5 5 5 5 5 5 5 5 4 4 4 4 5 4 3 3 3 3 3 3 4 4 4 4 4 5
13 11 12 11 10 10 13 12 12 12 11 10 10 13 13 12 11 7 6 5 5 5 5 4 4 4 4 5 5 5 5 5 5 4 4 4 4 4 4 3 3 3 2 2 2 3 3 3 3 4 4 4 4 4
12 10 10 15 11 11 11 11 11 9 8 9 10 11 10 8 6 6 5 5 5 5 6 5 4 4 4 4 4 4 5 5 5 6 6 5 5 4 4 3 3 3 3 2 2 3 3 3 3 4 4 4 4 4
12 10 12 12 14 12 10 8 8 8 8 7 7 8 8 8 6 5 6 6 6 6 5 5 4 5 5 5 4 5 4 4 4 4 5 5 5 5 5 4 4 4 4 3 3 3 2 3 3 3 4 4 4 5
10 10 12 11 12 10 9 8 8 8 8 8 8 9 8 7 6 5 5 5 5 5 6 6 6 5 5 5 5 5 5 4 4 4 3 4 5 5 4 4 4 4 4 4 4 4 3 4 4 4 5 5 5 5
10 11 11 13 12 11 10 9 9 9 10 10 9 10 9 9 9 7 6 7 7 7 6 6 7 6 5 4 4 4 3 3 4 4 4 4 5 4 4 4 4 4 4 4 4 4 4 4 4 5 5 5 5 5
11 11 12 12 12 12 11 10 11 11 11 11 11 10 10 9 9 7 6 6 7 7 7 7 6 6 6 6 5 5 4 3 3 3 3 2 3 4 4 5 4 4 4 4 4 4 4 5 5 4 4 4 4 5